Tracking 20369 objects as of 18-Feb-2020
HD Live streaming from Space Station
objects crossing your sky now

COSMOS 1828

Track COSMOS 1828 now!
10-day predictions
COSMOS 1828 is classified as:


NORAD ID: 17583
Int'l Code: 1987-026B
Perigee: 1,390.5 km
Apogee: 1,418.6 km
Inclination: 82.6 °
Period: 113.7 minutes
Semi major axis: 7775 km
RCS: 1.1912 m2 (large)
Launch date: March 13, 1987
Source: Commonwealth of Independent States (former USSR) (CIS)
Launch site: PLESETSK MISSILE AND SPACE COMPLEX (PKMTR)
aabbcc
Your satellite tracking list
Your tracking list is empty




NASA's NSSDC Master Catalog

Two Line Element Set (TLE):
1 17583U 87026B   20049.12096829  .00000027  00000-0  85177-4 0  9990
2 17583  82.5653 213.6644 0018017 303.3645 175.7744 12.66211382522301
Source of the keplerian elements: AFSPC